Details From KSHV - Shreveport Rgnl
To KTUP - Tupelo Rgnl
Flight Number -
Tags Standard
Created
Modified
Stats Distance 277 nm / 513 km
Max Altitude 0 ft / 0 m
Waypoints 3
Social Downloads 0
Likes 0
Share VATSIM

Download

Looking for another format? Having issues loading an existing format? Contact us
Advertisement - Login to hide

Notes

generated

Route

KSHV R3106 KTUP

ID Type Via Altitude Latitude Longitude Leg Dist Tot Dist Heading (true) Name
O KSHV APT - 0 ft / 0 m 32.44506˚ -93.83292˚ - 0 nm - SHREVEPORT RGNL
R3106 FIX - 0 ft / 0 m 34.27704˚ -88.76992˚ 276 nm 276 nm 65° / 68° -
O KTUP APT - 0 ft / 0 m 34.27704˚ -88.76992˚ 0 nm 276 nm 0° / 180° -

Altitude Profile

Advertisement - Login to hide

Weather


0- 5 10 15 20 25 30 35+ Temperature / ° C

Clouds and Precipitation
Forecast for 2018-05-22 18:00 UTC. Updated 2 hours ago

Ground ~20,000 ft ~40,000 ft Winds

KSHV

Details ICAO KSHV (SHV)
Name SHREVEPORT RGNL
Region United States
Timezone America/Chicago (UTC-5.0)
Stats Elevation 257 ft / 78 m (AMSL)
Location 32.446960° -93.825410°
Runways 2
Magnetic Variation 1.388° E

METAR

KSHV 221856Z 04004KT 10SM SCT042TCU BKN060 BKN280 30/21 A2998 RMK AO2 SLP148 TCU N T03000211

Decode

TAF

TAF KSHV 221727Z 2218/2318 VRB04KT P6SM SCT040 SCT150 BKN250 FM222000 VRB04KT P6SM VCTS SCT050CB BKN250 FM230000 VRB03KT P6SM FEW050 SCT150 BKN250 FM231200 VRB03KT P6SM FEW050 SCT250 FM231600 VRB04KT P6SM FEW030 SCT250

Decode

Departure Runways

ID Width Length Bearing (true) Bearing (mag) Surface Threshold Offset Overrun Length
05 150 ft / 46 m 6,197 ft / 1,889 m 60.78° 59.39° Asphalt 0 ft / 0 m 102 ft / 31 m
14 200 ft / 61 m 8,361 ft / 2,548 m 142.84° 141.45° Asphalt 0 ft / 0 m 102 ft / 31 m
23 150 ft / 46 m 6,197 ft / 1,889 m 240.79° 239.40° Asphalt 0 ft / 0 m 102 ft / 31 m
32 200 ft / 61 m 8,361 ft / 2,548 m 322.85° 321.46° Asphalt 374 ft / 114 m 102 ft / 31 m

KTUP

Details ICAO KTUP (TUP)
Name TUPELO RGNL
Region United States
Timezone America/Chicago (UTC-5.0)
Stats Elevation 346 ft / 105 m (AMSL)
Location 34.268111° -88.769894°
Runways 1
Magnetic Variation 2.176° W

METAR

KTUP 221853Z 13004KT 10SM BKN034 BKN043 29/19 A3001 RMK AO2 LTG DSNT N AND NW SLP159 T02890194 $

Decode

TAF

KTUP 221733Z 2218/2318 VRB03KT P6SM VCTS BKN050CB FM222300 02003KT P6SM FEW050 BKN250 FM230900 VRB03KT 4SM BR SKC FM231400 07004KT P6SM FEW025

Decode

Destination Runways

ID Width Length Bearing (true) Bearing (mag) Surface Threshold Offset Overrun Length
18 100 ft / 30 m 6,516 ft / 1,986 m 179.87° 182.05° Asphalt 0 ft / 0 m 0 ft / 0 m
36 100 ft / 30 m 6,516 ft / 1,986 m 359.87° 2.05° Asphalt 0 ft / 0 m 0 ft / 0 m

Approach Navaids

Runway Type Ident Frequency Range Bearing (true) Bearing (mag) Slope Elevation
36 Localiser ITUP 108.50 MHz 18 nm / 33 km 359.86° 2.04° - 346 ft / 105 m (AMSL)
36 Glidescope ITUP 108.50 MHz 10 nm / 19 km 359.87° 2.04° 3.00° 345 ft / 105 m (AMSL)

Popular Alternatives